[Iaude] MPEC V45: 2023 VB1 [a=1.56,e=0.36,i=6.5,H=25.8]
    mpec at marsden.cfa.harvard.edu 
    mpec at marsden.cfa.harvard.edu
       
    Sun Nov  5 08:18:34 EST 2023
    
    
  
M.P.E.C. 2023-V45                              Issued 2023 November 5, 13:16 UT
     The Minor Planet Electronic Circulars contain information on unusual
         minor planets, routine data on comets and natural satellites,
         and occasional editorial announcements.  They are published
    on behalf of Division F of the International Astronomical Union by the
          Minor Planet Center, Smithsonian Astrophysical Observatory,
                          Cambridge, MA 02138, U.S.A.
			  
             Prepared using the Tamkin Foundation Computer Network
                              MPC at CFA.HARVARD.EDU
            URL https://www.minorplanetcenter.net/    ISSN 1523-6714
                                    2023 VB1                                    
Observations:
     K23V01B*1C2023 11 03.35671601 49 42.852+23 07 14.30               VEV045G96
     K23V01B 1C2023 11 03.36182101 49 43.943+23 07 43.43         21.11GVEV045G96
     K23V01B 1C2023 11 03.36693801 49 45.073+23 08 14.03         20.67GVEV045G96
     K23V01B 1C2023 11 03.37205901 49 46.182+23 08 44.23         20.08GVEV045G96
     K23V01B  C2023 11 03.42912801 49 58.819+23 14 09.59         20.9 GVEV045H01
     K23V01B  C2023 11 03.43221201 49 59.528+23 14 27.30         20.2 GVEV045H01
     K23V01B KC2023 11 03.43600201 50 00.496+23 14 54.42         20.05GVEV045I52
     K23V01B KC2023 11 03.43763301 50 00.899+23 15 03.78         21.04GVEV045I52
     K23V01B KC2023 11 03.43925801 50 01.262+23 15 12.82         20.92GVEV045I52
     K23V01B KC2023 11 03.44088301 50 01.684+23 15 22.10         20.32GVEV045I52
     K23V01B  C2023 11 03.44271001 50 02.002+23 15 27.51         20.6 GVEV045H01
     K23V01B  C2023 11 03.44973501 50 03.669+23 16 07.71         21.0 GVEV045H01
     K23V01B KC2023 11 04.15408801 53 10.309+24 23 38.65         20.53GVEV045I52
     K23V01B KC2023 11 04.15794101 53 11.072+24 24 00.61         21.25GVEV045I52
     K23V01B KC2023 11 04.23698701 53 26.15 +24 31 16.8          20.6 G EV045858
     K23V01B KC2023 11 04.24732001 53 28.16 +24 32 13.1          20.6 G EV045858
     K23V01B KC2023 11 05.15568501 57 00.47 +25 50 11.4          20.7 GVEV045H21
     K23V01B KC2023 11 05.16127801 57 01.52 +25 50 39.2          20.5 GVEV045H21
     K23V01B KC2023 11 05.16687301 57 02.55 +25 51 06.7          20.8 GVEV045H21
     K23V01B  C2023 11 05.31485001 57 37.764+26 03 36.84         21.20wXEV045F52
     K23V01B  C2023 11 05.33684801 57 41.647+26 05 25.34         21.22wXEV045F52
     K23V01B  C2023 11 05.34782501 57 43.566+26 06 19.07         21.07wXEV045F52
Observer details:
858 Tebbutt Observatory, Edgewood.  Observer F. B. Zoltowski.  0.51-m f/8.1
    Schmidt-Cassegrain + CCD.
F52 Pan-STARRS 2, Haleakala.  Observers J. Bulger, T. Lowe, P. Minguez, A.
    Schultz, I. Smith.  Measurers K. Chambers, T. de Boer, J. Fairlamb, H.
    Gao, M. Huber, C.-C. Lin, E. Magnier, Y. Ramanjooloo, R. Wainscoat, R.
    Weryk.  1.8-m Ritchey-Chretien + CCD.
G96 Mt. Lemmon Survey.  Observer J. B. Fazekas.  Measurers E. C. Beshore, D.
    Fay, J. B. Fazekas, D. C. Fuls, A. R. Gibbs, A. D. Grauer, H. Groeller, J.
    K. Hogan, R. A. Kowalski, S. M. Larson, G. J. Leonard, D. Rankin, R. L.
    Seaman, F. C. Shelly, K. W. Wierzchos.  1.5-m reflector + 10K CCD.
H01 Magdalena Ridge Observatory, Socorro.  Observers W. H. Ryan, E. V. Ryan.
    Measurer W. H. Ryan.  2.4-m f/8.9 Ritchey-Chretien + CCD.
H21 Astronomical Research Observatory, Westfield.  Observer R. Holmes.
    Measurers T. Linder, R. Holmes, L. Horn.  0.76-m f/3.0 astrograph + CCD.
I52 Steward Observatory, Mt. Lemmon Station.  Observer D. Rankin.  Measurers
    E. C. Beshore, D. Fay, J. B. Fazekas, D. C. Fuls, A. R. Gibbs, A. D.
    Grauer, H. Groeller, J. K. Hogan, R. A. Kowalski, S. M. Larson, G. J.
    Leonard, D. Rankin, R. L. Seaman, F. C. Shelly, K. W. Wierzchos.  1.0-m
    prime focus + CCD.
Orbital elements:
2023 VB1                                                 Earth MOID = 0.0302 AU
Epoch 2023 Sept. 13.0 TT = JDT 2460200.5                Veres                   
M 351.42702              (2000.0)            P               Q                  
n   0.50726822     Peri.  328.35678     +0.99757629     -0.03097661             
a   1.5570801      Node    33.59010     +0.05722205     +0.87467621             
e   0.3571032      Incl.    6.46626     -0.03958769     +0.48371683             
P   1.94           H   25.80          G   0.15           U   8                  
Residuals in seconds of arc
231103 G96  0.0   0.3+    231103 I52  0.2-  0.2-    231105 H21  0.1-  0.1+
231103 G96  0.2-  0.5-    231103 I52  0.4+  0.2-    231105 H21  0.1+  0.1+
231103 G96  0.1+  0.0     231103 H01  0.0   0.0     231105 H21  0.1+  0.1-
231103 G96  0.1+  0.3+    231103 H01  0.1+  0.0     231105 F52  0.1-  0.3-
231103 H01  0.1+  0.0     231104 I52  0.2+  0.2-    231105 F52  0.0   0.1-
231103 H01  0.0   0.0     231104 I52  0.1-  0.1-    231105 F52  0.1+  0.0
231103 I52  0.3-  0.1+    231104 858  0.1-  0.2+
231103 I52  0.0   0.1+    231104 858  0.1-  0.1+
Ephemeris:
2023 VB1                 a,e,i = 1.56, 0.36, 6                   q = 1.0010
Date    TT    R. A. (2000) Decl.     Delta      r    Elong.  Phase     V
2023 10 06    19 27 03.8 -63 35 27   0.07164 1.0030    90.4    85.5    23.1
...
2023 10 21    00 03 35.4 -25 55 21   0.03839 1.0240   136.7    41.8    20.4
...
2023 10 29    01 21 10.7 +10 38 04   0.05153 1.0439   167.6    11.8    20.2
...
2023 11 04    01 52 27.8 +24 09 48   0.07211 1.0622   166.7    12.4    21.0
2023 11 05    01 56 23.2 +25 37 47   0.07601 1.0656   165.9    13.1    21.1
2023 11 06    02 00 02.1 +26 56 17   0.08000 1.0690   165.1    13.8    21.3
...
2023 11 12    02 17 29.5 +32 22 11   0.1057  1.0908   161.5    16.8    22.0
...
2023 11 20    02 33 33.5 +35 50 36   0.1440  1.1232   158.2    19.1    22.8
...
2023 12 05    02 55 29.1 +37 37 50   0.2279  1.1921   152.3    22.6    24.1
M. P. C. Staff               (C) Copyright 2023 MPC           M.P.E.C. 2023-V45
    
    
More information about the Iaude
mailing list